,,,PA_Meas_PMT16A,,PR_Meas_QMR101_102,,RH_Meas_QMH101,,SR_Meas_QMS101,,TA_Meas_QMH101,,GenWind,,GenWind,
date,time,status,PA,status,PR,status,RH,status,SR,status,TA,status,DirAvg,status,SpdAvg,
2010-02-02, 00:00:04,VALID,1009.73,VALID,0,VALID,74.4426,VALID,0,VALID,24.532,VALID,19,VALID,0,
2010-02-02, 00:01:04,VALID,1009.72,VALID,0,VALID,74.5036,VALID,0,VALID,24.532,VALID,19,VALID,0,
2010-02-02, 00:02:04,VALID,1009.72,VALID,0,VALID,74.5265,VALID,0.105969,VALID,24.4911,VALID,19,VALID,0,
2010-02-02, 00:03:04,VALID,1009.7,VALID,0,VALID,74.5799,VALID,0,VALID,24.5125,VALID,19,VALID,0,
2010-02-02, 00:04:04,VALID,1009.69,VALID,0,VALID,74.6027,VALID,0.105969,VALID,24.4717,VALID,19,VALID,0,
2010-02-02, 00:05:04,VALID,1009.67,VALID,0,VALID,74.6027,VALID,0,VALID,24.4522,VALID,19,VALID,0.0570313,
2010-02-02, 00:06:04,VALID,1009.64,VALID,0,VALID,74.557,VALID,0,VALID,24.4522,VALID,327,VALID,0.059375,
2010-02-02, 00:07:04,VALID,1009.65,VALID,0,VALID,74.557,VALID,0,VALID,24.4327,VALID,327,VALID,0,
2010-02-02, 00:08:04,VALID,1009.61,VALID,0,VALID,74.5494,VALID,0,VALID,24.4327,VALID,327,VALID,0,
2010-02-02, 00:09:04,VALID,1009.59,VALID,0,VALID,74.6104,VALID,0,VALID,24.4345,VALID,326,VALID,0.149609,
2010-02-02, 00:10:04,VALID,1009.55,VALID,0,VALID,74.5951,VALID,0,VALID,24.4345,VALID,325,VALID,0.189063,
2010-02-02, 00:11:04,VALID,1009.56,VALID,0,VALID,74.6561,VALID,0,VALID,24.3937,VALID,325,VALID,0.0628906,
2010-02-02, 00:12:04,VALID,1009.56,VALID,0,VALID,74.6943,VALID,0.105969,VALID,24.3937,VALID,325,VALID,0.0078125,
2010-02-02, 00:13:04,VALID,1009.52,VALID,0,VALID,74.7019,VALID,0.105969,VALID,24.3956,VALID,325,VALID,0,
2010-02-02, 00:14:04,VALID,1009.49,VALID,0,VALID,74.7171,VALID,0,VALID,24.3742,VALID,325,VALID,0,
2010-02-02, 00:15:04,VALID,1009.51,VALID,0,VALID,74.6943,VALID,0.105969,VALID,24.3956,VALID,325,VALID,0,
2010-02-02, 00:16:04,VALID,1009.51,VALID,0,VALID,74.6866,VALID,0.105969,VALID,24.3742,VALID,325,VALID,0,
2010-02-02, 00:17:04,VALID,1009.5,VALID,0,VALID,74.7324,VALID,0.105969,VALID,24.3742,VALID,325,VALID,0.111328,
2010-02-02, 00:18:04,VALID,1009.47,VALID,0,VALID,74.7553,VALID,0.105969,VALID,24.3742,VALID,325,VALID,0,
2010-02-02, 00:19:04,VALID,1009.48,VALID,0,VALID,74.8315,VALID,0.105969,VALID,24.3547,VALID,325,VALID,0,
2010-02-02, 00:20:04,VALID,1009.49,VALID,0,VALID,74.8849,VALID,0.105969,VALID,24.3352,VALID,325,VALID,0,
2010-02-02, 00:21:04,VALID,1009.51,VALID,0,VALID,74.9307,VALID,0,VALID,24.3371,VALID,325,VALID,0,
2010-02-02, 00:22:04,VALID,1009.49,VALID,0,VALID,74.984,VALID,0.105969,VALID,24.3158,VALID,325,VALID,0.240625,
2010-02-02, 00:23:04,VALID,1009.46,VALID,0,VALID,74.9154,VALID,0,VALID,24.2963,VALID,325,VALID,0.216016,
2010-02-02, 00:24:04,VALID,1009.47,VALID,0,VALID,74.9688,VALID,0.105969,VALID,24.2963,VALID,325,VALID,0.109766,
2010-02-02, 00:25:04,VALID,1009.45,VALID,0,VALID,74.9993,VALID,0,VALID,24.2768,VALID,325,VALID,0.108984,
2010-02-02, 00:26:04,VALID,1009.45,VALID,0,VALID,75.0298,VALID,0,VALID,24.2768,VALID,325,VALID,0.242188,
2010-02-02, 00:27:04,VALID,1009.46,VALID,0,VALID,75.0755,VALID,0.105969,VALID,24.2768,VALID,325,VALID,0.261719,
2010-02-02, 00:28:04,VALID,1009.44,VALID,0,VALID,75.106,VALID,0.105969,VALID,24.2981,VALID,325,VALID,0.373828,
2010-02-02, 00:29:04,VALID,1009.44,VALID,0,VALID,75.1671,VALID,0.105969,VALID,24.2573,VALID,325,VALID,0.158984,
2010-02-02, 00:30:04,VALID,1009.45,VALID,0,VALID,75.2052,VALID,0.105969,VALID,24.2768,VALID,325,VALID,0.0398437,
2010-02-02, 00:31:04,VALID,1009.47,VALID,0,VALID,75.2204,VALID,0.105969,VALID,24.2378,VALID,325,VALID,0,
2010-02-02, 00:32:04,VALID,1009.42,VALID,0,VALID,75.2281,VALID,0,VALID,24.2396,VALID,325,VALID,0,
2010-02-02, 00:33:04,VALID,1009.42,VALID,0,VALID,75.2204,VALID,0.105969,VALID,24.2396,VALID,325,VALID,0,
2010-02-02, 00:34:04,VALID,1009.42,VALID,0,VALID,75.2433,VALID,0.105969,VALID,24.2183,VALID,325,VALID,0,
2010-02-02, 00:35:04,VALID,1009.39,VALID,0,VALID,75.2738,VALID,0,VALID,24.1988,VALID,325,VALID,0,
2010-02-02, 00:36:04,VALID,1009.39,VALID,0,VALID,75.2814,VALID,0.105969,VALID,24.2183,VALID,325,VALID,0,
2010-02-02, 00:37:04,VALID,1009.4,VALID,0,VALID,75.2738,VALID,0,VALID,24.2183,VALID,325,VALID,0,
2010-02-02, 00:38:04,VALID,1009.36,VALID,0,VALID,75.2586,VALID,0.105969,VALID,24.2183,VALID,325,VALID,0,
2010-02-02, 00:39:04,VALID,1009.35,VALID,0,VALID,75.2662,VALID,0.105969,VALID,24.2183,VALID,325,VALID,0,
2010-02-02, 00:40:04,VALID,1009.35,VALID,0,VALID,75.2891,VALID,0.105969,VALID,24.2396,VALID,325,VALID,0,
2010-02-02, 00:41:04,VALID,1009.34,VALID,0,VALID,75.3196,VALID,0,VALID,24.1988,VALID,325,VALID,0,
2010-02-02, 00:42:04,VALID,1009.34,VALID,0,VALID,75.2967,VALID,0,VALID,24.1793,VALID,325,VALID,0,
2010-02-02, 00:43:04,VALID,1009.3,VALID,0,VALID,75.2357,VALID,0,VALID,24.2007,VALID,325,VALID,0,
2010-02-02, 00:44:04,VALID,1009.31,VALID,0,VALID,75.1899,VALID,0,VALID,24.1812,VALID,325,VALID,0,
2010-02-02, 00:45:04,VALID,1009.29,VALID,0,VALID,75.2204,VALID,0,VALID,24.1617,VALID,325,VALID,0,
2010-02-02, 00:46:04,VALID,1009.25,VALID,0,VALID,75.2509,VALID,0,VALID,24.1617,VALID,325,VALID,0,
2010-02-02, 00:47:04,VALID,1009.27,VALID,0,VALID,75.3348,VALID,0,VALID,24.1617,VALID,325,VALID,0,
2010-02-02, 00:48:04,VALID,1009.25,VALID,0,VALID,75.4111,VALID,0,VALID,24.1617,VALID,325,VALID,0,
2010-02-02, 00:49:04,VALID,1009.27,VALID,0,VALID,75.4568,VALID,0,VALID,24.1404,VALID,325,VALID,0,
2010-02-02, 00:50:04,VALID,1009.27,VALID,0,VALID,75.4797,VALID,0,VALID,24.1422,VALID,325,VALID,0.208984,
2010-02-02, 00:51:04,VALID,1009.25,VALID,0,VALID,75.5102,VALID,0.105969,VALID,24.1422,VALID,325,VALID,0.30625,
2010-02-02, 00:52:04,VALID,1009.23,VALID,0,VALID,75.5102,VALID,0,VALID,24.1014,VALID,325,VALID,0.305859,
2010-02-02, 00:53:04,VALID,1009.24,VALID,0,VALID,75.556,VALID,0,VALID,24.0819,VALID,325,VALID,0.240625,
2010-02-02, 00:54:04,VALID,1009.24,VALID,0,VALID,75.5483,VALID,0.105969,VALID,24.0819,VALID,325,VALID,0.0722656,
2010-02-02, 00:55:04,VALID,1009.24,VALID,0,VALID,75.5865,VALID,0.105969,VALID,24.0837,VALID,325,VALID,0.279297,
2010-02-02, 00:56:04,VALID,1009.25,VALID,0,VALID,75.6246,VALID,0,VALID,24.0624,VALID,325,VALID,0.247266,
2010-02-02, 00:57:04,VALID,1009.27,VALID,0,VALID,75.6093,VALID,0,VALID,24.0837,VALID,325,VALID,0,
2010-02-02, 00:58:04,VALID,1009.26,VALID,0,VALID,75.6475,VALID,0,VALID,24.0819,VALID,325,VALID,0,
2010-02-02, 00:59:04,VALID,1009.28,VALID,0,VALID,75.6627,VALID,0,VALID,24.0819,VALID,325,VALID,0,
2010-02-02, 01:00:04,VALID,1009.25,VALID,0,VALID,75.6398,VALID,0,VALID,24.1032,VALID,325,VALID,0,
2010-02-02, 01:01:04,VALID,1009.26,VALID,0,VALID,75.6398,VALID,0,VALID,24.0819,VALID,325,VALID,0,
2010-02-02, 01:02:04,VALID,1009.24,VALID,0,VALID,75.617,VALID,0,VALID,24.0837,VALID,325,VALID,0,
2010-02-02, 01:03:04,VALID,1009.23,VALID,0,VALID,75.617,VALID,0,VALID,24.0837,VALID,325,VALID,0,
2010-02-02, 01:04:04,VALID,1009.22,VALID,0,VALID,75.617,VALID,0,VALID,24.0837,VALID,325,VALID,0,
2010-02-02, 01:05:04,VALID,1009.21,VALID,0,VALID,75.6093,VALID,0,VALID,24.0819,VALID,325,VALID,0,
2010-02-02, 01:06:04,VALID,1009.18,VALID,0,VALID,75.5941,VALID,0,VALID,24.1032,VALID,325,VALID,0,
2010-02-02, 01:07:04,VALID,1009.21,VALID,0,VALID,75.6093,VALID,0,VALID,24.0819,VALID,322,VALID,0.0253906,
2010-02-02, 01:08:04,VALID,1009.21,VALID,0,VALID,75.6475,VALID,0,VALID,24.1422,VALID,265,VALID,0.144922,
2010-02-02, 01:09:04,VALID,1009.22,VALID,0,VALID,75.6932,VALID,0,VALID,24.1227,VALID,234,VALID,0.486328,
2010-02-02, 01:10:04,VALID,1009.18,VALID,0,VALID,75.6551,VALID,0,VALID,24.1404,VALID,234,VALID,0.589844,
2010-02-02, 01:11:04,VALID,1009.22,VALID,0,VALID,75.6322,VALID,0,VALID,24.1599,VALID,234,VALID,0.406641,
2010-02-02, 01:12:04,VALID,1009.24,VALID,0,VALID,75.5712,VALID,0,VALID,24.1812,VALID,234,VALID,0.203125,
2010-02-02, 01:13:04,VALID,1009.25,VALID,0,VALID,75.556,VALID,0,VALID,24.1599,VALID,234,VALID,0.314844,
2010-02-02, 01:14:04,VALID,1009.26,VALID,0,VALID,75.5102,VALID,0,VALID,24.1617,VALID,234,VALID,0.384375,
2010-02-02, 01:15:04,VALID,1009.27,VALID,0,VALID,75.495,VALID,0,VALID,24.1812,VALID,234,VALID,0.4,
2010-02-02, 01:16:04,VALID,1009.25,VALID,0,VALID,75.4721,VALID,0,VALID,24.1422,VALID,234,VALID,0.247266,
2010-02-02, 01:17:04,VALID,1009.27,VALID,0,VALID,75.4797,VALID,0,VALID,24.1227,VALID,234,VALID,0.216797,
2010-02-02, 01:18:04,VALID,1009.27,VALID,0,VALID,75.4797,VALID,0,VALID,24.1227,VALID,234,VALID,0.216406,
2010-02-02, 01:19:04,VALID,1009.26,VALID,0,VALID,75.5178,VALID,0,VALID,24.1032,VALID,234,VALID,0,
2010-02-02, 01:20:04,VALID,1009.24,VALID,0,VALID,75.556,VALID,0,VALID,24.0819,VALID,234,VALID,0,
2010-02-02, 01:21:04,VALID,1009.24,VALID,0,VALID,75.5483,VALID,0,VALID,24.0643,VALID,234,VALID,0,
2010-02-02, 01:22:04,VALID,1009.23,VALID,0,VALID,75.5483,VALID,0,VALID,24.0448,VALID,234,VALID,0,
2010-02-02, 01:23:04,VALID,1009.23,VALID,0,VALID,75.6093,VALID,0,VALID,24.0448,VALID,256,VALID,0.149219,
2010-02-02, 01:24:04,VALID,1009.23,VALID,0,VALID,75.6475,VALID,0,VALID,24.0235,VALID,256,VALID,0,
2010-02-02, 01:25:04,VALID,1009.2,VALID,0,VALID,75.6856,VALID,0,VALID,24.0253,VALID,256,VALID,0,
2010-02-02, 01:26:04,VALID,1009.19,VALID,0,VALID,75.739,VALID,0,VALID,24.0253,VALID,256,VALID,0,
2010-02-02, 01:27:04,VALID,1009.18,VALID,0,VALID,75.8381,VALID,0,VALID,24.004,VALID,256,VALID,0,
2010-02-02, 01:28:04,VALID,1009.18,VALID,0,VALID,75.8839,VALID,0,VALID,24.0058,VALID,256,VALID,0,
2010-02-02, 01:29:04,VALID,1009.18,VALID,0,VALID,75.8991,VALID,0,VALID,24.0058,VALID,256,VALID,0,
2010-02-02, 01:30:04,VALID,1009.16,VALID,0,VALID,75.922,VALID,0,VALID,24.0058,VALID,256,VALID,0,
2010-02-02, 01:31:04,VALID,1009.16,VALID,0,VALID,75.9525,VALID,0,VALID,24.0058,VALID,256,VALID,0,
2010-02-02, 01:32:04,VALID,1009.15,VALID,0,VALID,75.9906,VALID,0,VALID,23.9863,VALID,256,VALID,0,
2010-02-02, 01:33:04,VALID,1009.11,VALID,0,VALID,76.0059,VALID,0,VALID,23.9863,VALID,261,VALID,0,
2010-02-02, 01:34:04,VALID,1009.14,VALID,0,VALID,76.0211,VALID,0,VALID,23.9455,VALID,7,VALID,0.4375,
2010-02-02, 01:35:04,VALID,1009.16,VALID,0,VALID,76.0288,VALID,0,VALID,23.9473,VALID,13,VALID,0.720703,
2010-02-02, 01:36:04,VALID,1009.16,VALID,0,VALID,76.0288,VALID,0,VALID,23.9278,VALID,38,VALID,0.232031,
2010-02-02, 01:37:04,VALID,1009.13,VALID,0,VALID,76.0288,VALID,0,VALID,23.9278,VALID,38,VALID,0,
2010-02-02, 01:38:04,VALID,1009.18,VALID,0,VALID,76.044,VALID,0,VALID,23.9084,VALID,38,VALID,0,
2010-02-02, 01:39:04,VALID,1009.16,VALID,0,VALID,76.0516,VALID,0,VALID,23.9084,VALID,38,VALID,0,
2010-02-02, 01:40:04,VALID,1009.2,VALID,0,VALID,76.044,VALID,0,VALID,23.9491,VALID,38,VALID,0,
2010-02-02, 01:41:04,VALID,1009.2,VALID,0,VALID,76.0364,VALID,0,VALID,23.9084,VALID,38,VALID,0.355859,
2010-02-02, 01:42:04,VALID,1009.21,VALID,0,VALID,76.0364,VALID,0,VALID,23.8694,VALID,38,VALID,0.775391,
2010-02-02, 01:43:04,VALID,1009.2,VALID,0,VALID,76.0364,VALID,0,VALID,23.8304,VALID,38,VALID,0.498828,
2010-02-02, 01:44:04,VALID,1009.2,VALID,0,VALID,76.0669,VALID,0,VALID,23.8109,VALID,41,VALID,0.508984,
2010-02-02, 01:45:04,VALID,1009.19,VALID,0,VALID,76.044,VALID,0,VALID,23.7914,VALID,48,VALID,0.264844,
2010-02-02, 01:46:04,VALID,1009.2,VALID,0,VALID,76.0821,VALID,0,VALID,23.7914,VALID,48,VALID,0.555859,
2010-02-02, 01:47:04,VALID,1009.2,VALID,0,VALID,76.0669,VALID,0,VALID,23.7525,VALID,48,VALID,0.437109,
2010-02-02, 01:48:04,VALID,1009.19,VALID,0,VALID,76.0821,VALID,0,VALID,23.733,VALID,48,VALID,0.0359375,
2010-02-02, 01:49:04,VALID,1009.19,VALID,0,VALID,76.0516,VALID,0,VALID,23.694,VALID,48,VALID,0.0175781,
2010-02-02, 01:50:04,VALID,1009.19,VALID,0,VALID,76.0288,VALID,0,VALID,23.694,VALID,48,VALID,0.0820313,
2010-02-02, 01:51:04,VALID,1009.2,VALID,0,VALID,76.0516,VALID,0,VALID,23.6745,VALID,48,VALID,0,
2010-02-02, 01:52:04,VALID,1009.18,VALID,0,VALID,76.0745,VALID,0,VALID,23.655,VALID,48,VALID,0,
2010-02-02, 01:53:04,VALID,1009.18,VALID,0,VALID,76.0745,VALID,0.105969,VALID,23.6338,VALID,48,VALID,0,
2010-02-02, 01:54:04,VALID,1009.15,VALID,0,VALID,76.0821,VALID,0,VALID,23.6356,VALID,48,VALID,0,
2010-02-02, 01:55:04,VALID,1009.15,VALID,0,VALID,76.1126,VALID,0,VALID,23.6356,VALID,48,VALID,0,
2010-02-02, 01:56:04,VALID,1009.15,VALID,0,VALID,76.105,VALID,0,VALID,23.6356,VALID,48,VALID,0,
2010-02-02, 01:57:04,VALID,1009.13,VALID,0,VALID,76.1355,VALID,0,VALID,23.6143,VALID,48,VALID,0,
2010-02-02, 01:58:04,VALID,1009.11,VALID,0,VALID,76.1355,VALID,0,VALID,23.6161,VALID,48,VALID,0,
2010-02-02, 01:59:04,VALID,1009.1,VALID,0,VALID,76.1508,VALID,0,VALID,23.6161,VALID,48,VALID,0,
2010-02-02, 02:00:04,VALID,1009.1,VALID,0,VALID,76.1737,VALID,0,VALID,23.5966,VALID,48,VALID,0,
2010-02-02, 02:01:04,VALID,1009.13,VALID,0,VALID,76.1813,VALID,0,VALID,23.5966,VALID,48,VALID,0,
2010-02-02, 02:02:04,VALID,1009.13,VALID,0,VALID,76.2575,VALID,0,VALID,23.5966,VALID,48,VALID,0,
2010-02-02, 02:03:04,VALID,1009.12,VALID,0,VALID,76.2652,VALID,0,VALID,23.5966,VALID,48,VALID,0,
2010-02-02, 02:04:04,VALID,1009.1,VALID,0,VALID,76.2804,VALID,0,VALID,23.5771,VALID,48,VALID,0,
2010-02-02, 02:05:04,VALID,1009.09,VALID,0,VALID,76.2652,VALID,0,VALID,23.5771,VALID,48,VALID,0,
2010-02-02, 02:06:04,VALID,1009.09,VALID,0,VALID,76.2652,VALID,0,VALID,23.5771,VALID,48,VALID,0,
2010-02-02, 02:07:04,VALID,1009.08,VALID,0,VALID,76.2652,VALID,0,VALID,23.5576,VALID,48,VALID,0,
2010-02-02, 02:08:04,VALID,1009.07,VALID,0,VALID,76.2804,VALID,0,VALID,23.5576,VALID,48,VALID,0,
2010-02-02, 02:09:04,VALID,1009.07,VALID,0,VALID,76.2728,VALID,0,VALID,23.5576,VALID,48,VALID,0,
2010-02-02, 02:10:04,VALID,1009.09,VALID,0,VALID,76.2957,VALID,0,VALID,23.5381,VALID,48,VALID,0,
2010-02-02, 02:11:04,VALID,1009.08,VALID,0,VALID,76.2957,VALID,0,VALID,23.5381,VALID,48,VALID,0,
2010-02-02, 02:12:04,VALID,1009.11,VALID,0,VALID,76.3033,VALID,0,VALID,23.5169,VALID,48,VALID,0,
2010-02-02, 02:13:04,VALID,1009.09,VALID,0,VALID,76.3033,VALID,0,VALID,23.5381,VALID,48,VALID,0,
2010-02-02, 02:14:04,VALID,1009.12,VALID,0,VALID,76.2957,VALID,0,VALID,23.5186,VALID,48,VALID,0,
2010-02-02, 02:15:04,VALID,1009.13,VALID,0,VALID,76.2804,VALID,0,VALID,23.5169,VALID,48,VALID,0,
2010-02-02, 02:16:04,VALID,1009.13,VALID,0,VALID,76.2728,VALID,0,VALID,23.5381,VALID,48,VALID,0,
2010-02-02, 02:17:04,VALID,1009.1,VALID,0,VALID,76.288,VALID,0,VALID,23.5186,VALID,48,VALID,0,
2010-02-02, 02:18:04,VALID,1009.12,VALID,0,VALID,76.2728,VALID,0.105969,VALID,23.4974,VALID,48,VALID,0,
2010-02-02, 02:19:04,VALID,1009.12,VALID,0,VALID,76.2652,VALID,0.105969,VALID,23.5186,VALID,48,VALID,0,
2010-02-02, 02:20:04,VALID,1009.11,VALID,0,VALID,76.2804,VALID,0,VALID,23.4992,VALID,48,VALID,0,
2010-02-02, 02:21:04,VALID,1009.09,VALID,0,VALID,76.288,VALID,0,VALID,23.5186,VALID,48,VALID,0,
2010-02-02, 02:22:04,VALID,1009.1,VALID,0,VALID,76.3033,VALID,0.105969,VALID,23.5186,VALID,48,VALID,0,
2010-02-02, 02:23:04,VALID,1009.11,VALID,0,VALID,76.2957,VALID,0,VALID,23.4992,VALID,48,VALID,0,
2010-02-02, 02:24:04,VALID,1009.14,VALID,0,VALID,76.2728,VALID,0,VALID,23.4974,VALID,48,VALID,0,
2010-02-02, 02:25:04,VALID,1009.14,VALID,0,VALID,76.2728,VALID,0,VALID,23.4779,VALID,48,VALID,0,
2010-02-02, 02:26:04,VALID,1009.15,VALID,0,VALID,76.288,VALID,0.105969,VALID,23.4779,VALID,48,VALID,0,
2010-02-02, 02:27:04,VALID,1009.18,VALID,0,VALID,76.2728,VALID,0,VALID,23.4992,VALID,48,VALID,0,
2010-02-02, 02:28:04,VALID,1009.15,VALID,0,VALID,76.2347,VALID,0,VALID,23.4974,VALID,48,VALID,0,
2010-02-02, 02:29:04,VALID,1009.19,VALID,0,VALID,76.2499,VALID,0.105969,VALID,23.4992,VALID,48,VALID,0,
2010-02-02, 02:30:04,VALID,1009.2,VALID,0,VALID,76.2499,VALID,0,VALID,23.4779,VALID,48,VALID,0,
2010-02-02, 02:31:04,VALID,1009.2,VALID,0,VALID,76.2347,VALID,0,VALID,23.5186,VALID,48,VALID,0,
2010-02-02, 02:32:04,VALID,1009.21,VALID,0,VALID,76.2423,VALID,0.105969,VALID,23.4974,VALID,48,VALID,0,
2010-02-02, 02:33:04,VALID,1009.2,VALID,0,VALID,76.227,VALID,0,VALID,23.5186,VALID,48,VALID,0,
2010-02-02, 02:34:04,VALID,1009.22,VALID,0,VALID,76.2499,VALID,0,VALID,23.4779,VALID,48,VALID,0,
2010-02-02, 02:35:04,VALID,1009.22,VALID,0,VALID,76.227,VALID,0,VALID,23.5186,VALID,48,VALID,0,
2010-02-02, 02:36:04,VALID,1009.25,VALID,0,VALID,76.227,VALID,0,VALID,23.4992,VALID,48,VALID,0,
2010-02-02, 02:37:04,VALID,1009.26,VALID,0,VALID,76.2499,VALID,0.105969,VALID,23.4584,VALID,48,VALID,0,
2010-02-02, 02:38:04,VALID,1009.28,VALID,0,VALID,76.2423,VALID,0,VALID,23.4797,VALID,48,VALID,0,
2010-02-02, 02:39:04,VALID,1009.29,VALID,0,VALID,76.2575,VALID,0,VALID,23.4602,VALID,48,VALID,0,
2010-02-02, 02:40:04,VALID,1009.32,VALID,0,VALID,76.2575,VALID,0,VALID,23.4389,VALID,48,VALID,0,
2010-02-02, 02:41:04,VALID,1009.33,VALID,0,VALID,76.2499,VALID,0,VALID,23.4407,VALID,48,VALID,0,
2010-02-02, 02:42:04,VALID,1009.3,VALID,0,VALID,76.2499,VALID,0,VALID,23.4407,VALID,48,VALID,0,
2010-02-02, 02:43:04,VALID,1009.3,VALID,0,VALID,76.2194,VALID,0,VALID,23.4407,VALID,48,VALID,0,
2010-02-02, 02:44:04,VALID,1009.33,VALID,0,VALID,76.2347,VALID,0,VALID,23.4407,VALID,48,VALID,0,
2010-02-02, 02:45:04,VALID,1009.32,VALID,0,VALID,76.2347,VALID,0,VALID,23.4194,VALID,48,VALID,0,
2010-02-02, 02:46:04,VALID,1009.3,VALID,0,VALID,76.2194,VALID,0,VALID,23.4407,VALID,48,VALID,0,
2010-02-02, 02:47:04,VALID,1009.3,VALID,0,VALID,76.2347,VALID,0,VALID,23.4407,VALID,48,VALID,0,
2010-02-02, 02:48:04,VALID,1009.29,VALID,0,VALID,76.2499,VALID,0.105969,VALID,23.4407,VALID,48,VALID,0,
2010-02-02, 02:49:04,VALID,1009.28,VALID,0,VALID,76.2423,VALID,0,VALID,23.4212,VALID,48,VALID,0,
2010-02-02, 02:50:04,VALID,1009.26,VALID,0,VALID,76.2575,VALID,0,VALID,23.4212,VALID,48,VALID,0,
2010-02-02, 02:51:04,VALID,1009.23,VALID,0,VALID,76.2652,VALID,0,VALID,23.4212,VALID,48,VALID,0,
2010-02-02, 02:52:04,VALID,1009.23,VALID,0,VALID,76.2728,VALID,0,VALID,23.4212,VALID,48,VALID,0,
2010-02-02, 02:53:04,VALID,1009.26,VALID,0,VALID,76.2652,VALID,0.105969,VALID,23.4017,VALID,48,VALID,0,
2010-02-02, 02:54:04,VALID,1009.24,VALID,0,VALID,76.2652,VALID,0.105969,VALID,23.361,VALID,48,VALID,0,
2010-02-02, 02:55:04,VALID,1009.22,VALID,0,VALID,76.2804,VALID,0,VALID,23.3823,VALID,48,VALID,0,
2010-02-02, 02:56:04,VALID,1009.24,VALID,0,VALID,76.2347,VALID,0,VALID,23.361,VALID,48,VALID,0,
2010-02-02, 02:57:04,VALID,1009.23,VALID,0,VALID,76.2347,VALID,0.105969,VALID,23.4017,VALID,48,VALID,0,
2010-02-02, 02:58:04,VALID,1009.22,VALID,0,VALID,76.2347,VALID,0,VALID,23.4017,VALID,48,VALID,0,
2010-02-02, 02:59:04,VALID,1009.21,VALID,0,VALID,76.2118,VALID,0,VALID,23.4212,VALID,48,VALID,0,
2010-02-02, 03:00:04,VALID,1009.22,VALID,0,VALID,76.2118,VALID,0,VALID,23.4017,VALID,48,VALID,0,
2010-02-02, 03:01:04,VALID,1009.22,VALID,0,VALID,76.227,VALID,0,VALID,23.4017,VALID,48,VALID,0,
2010-02-02, 03:02:04,VALID,1009.23,VALID,0,VALID,76.2423,VALID,0.105969,VALID,23.4017,VALID,48,VALID,0,
2010-02-02, 03:03:04,VALID,1009.23,VALID,0,VALID,76.2347,VALID,0.105969,VALID,23.4017,VALID,48,VALID,0,
2010-02-02, 03:04:04,VALID,1009.24,VALID,0,VALID,76.2347,VALID,0,VALID,23.4017,VALID,48,VALID,0,
2010-02-02, 03:05:04,VALID,1009.22,VALID,0,VALID,76.2042,VALID,0.105969,VALID,23.4017,VALID,48,VALID,0,
2010-02-02, 03:06:04,VALID,1009.21,VALID,0,VALID,76.1965,VALID,0.105969,VALID,23.4,VALID,48,VALID,0,
2010-02-02, 03:07:04,VALID,1009.22,VALID,0,VALID,76.2118,VALID,0,VALID,23.4,VALID,48,VALID,0,
2010-02-02, 03:08:04,VALID,1009.22,VALID,0,VALID,76.1965,VALID,0.105969,VALID,23.4212,VALID,48,VALID,0,
2010-02-02, 03:09:04,VALID,1009.17,VALID,0,VALID,76.1965,VALID,0,VALID,23.3805,VALID,48,VALID,0,
2010-02-02, 03:10:04,VALID,1009.19,VALID,0,VALID,76.1813,VALID,0.105969,VALID,23.4212,VALID,48,VALID,0,
2010-02-02, 03:11:04,VALID,1009.18,VALID,0,VALID,76.1889,VALID,0.105969,VALID,23.4212,VALID,48,VALID,0,
2010-02-02, 03:12:04,VALID,1009.17,VALID,0,VALID,76.2118,VALID,0.105969,VALID,23.4212,VALID,48,VALID,0,
2010-02-02, 03:13:04,VALID,1009.18,VALID,0,VALID,76.1965,VALID,0,VALID,23.4017,VALID,48,VALID,0,
2010-02-02, 03:14:04,VALID,1009.21,VALID,0,VALID,76.2194,VALID,0,VALID,23.3805,VALID,48,VALID,0,
2010-02-02, 03:15:04,VALID,1009.23,VALID,0,VALID,76.2575,VALID,0,VALID,23.3433,VALID,48,VALID,0,
2010-02-02, 03:16:04,VALID,1009.29,VALID,0,VALID,76.2575,VALID,0.105969,VALID,23.3238,VALID,48,VALID,0,
2010-02-02, 03:17:04,VALID,1009.29,VALID,0,VALID,76.2575,VALID,0,VALID,23.3043,VALID,48,VALID,0,
2010-02-02, 03:18:04,VALID,1009.3,VALID,0,VALID,76.227,VALID,0,VALID,23.3043,VALID,48,VALID,0,
2010-02-02, 03:19:04,VALID,1009.3,VALID,0,VALID,76.227,VALID,0,VALID,23.3043,VALID,48,VALID,0,
2010-02-02, 03:20:04,VALID,1009.29,VALID,0,VALID,76.2423,VALID,0,VALID,23.2831,VALID,48,VALID,0,
2010-02-02, 03:21:04,VALID,1009.3,VALID,0,VALID,76.2194,VALID,0,VALID,23.2848,VALID,48,VALID,0,
2010-02-02, 03:22:04,VALID,1009.27,VALID,0,VALID,76.227,VALID,0.105969,VALID,23.2848,VALID,48,VALID,0,
2010-02-02, 03:23:04,VALID,1009.24,VALID,0,VALID,76.227,VALID,0,VALID,23.2848,VALID,48,VALID,0,
2010-02-02, 03:24:04,VALID,1009.24,VALID,0,VALID,76.2042,VALID,0,VALID,23.3043,VALID,48,VALID,0.322656,
2010-02-02, 03:25:04,VALID,1009.25,VALID,0,VALID,76.1813,VALID,0.105969,VALID,23.3043,VALID,48,VALID,0.291016,
2010-02-02, 03:26:04,VALID,1009.27,VALID,0,VALID,76.1813,VALID,0,VALID,23.3043,VALID,48,VALID,0.30625,
2010-02-02, 03:27:04,VALID,1009.3,VALID,0,VALID,76.1813,VALID,0.105969,VALID,23.3026,VALID,48,VALID,0,
2010-02-02, 03:28:04,VALID,1009.31,VALID,0,VALID,76.1813,VALID,0,VALID,23.3433,VALID,48,VALID,0,
2010-02-02, 03:29:04,VALID,1009.35,VALID,0,VALID,76.1584,VALID,0,VALID,23.3433,VALID,48,VALID,0,
2010-02-02, 03:30:04,VALID,1009.35,VALID,0,VALID,76.1432,VALID,0,VALID,23.3433,VALID,48,VALID,0,
2010-02-02, 03:31:04,VALID,1009.35,VALID,0,VALID,76.1355,VALID,0,VALID,23.3433,VALID,48,VALID,0,
2010-02-02, 03:32:04,VALID,1009.35,VALID,0,VALID,76.1279,VALID,0,VALID,23.3415,VALID,48,VALID,0,
2010-02-02, 03:33:04,VALID,1009.36,VALID,0,VALID,76.1508,VALID,0,VALID,23.3628,VALID,48,VALID,0,
2010-02-02, 03:34:04,VALID,1009.36,VALID,0,VALID,76.1508,VALID,0,VALID,23.3628,VALID,48,VALID,0,
2010-02-02, 03:35:05,VALID,1009.37,VALID,0,VALID,76.1432,VALID,0,VALID,23.3433,VALID,48,VALID,0.00390625,
2010-02-02, 03:36:05,VALID,1009.38,VALID,0,VALID,76.1355,VALID,0,VALID,23.3628,VALID,48,VALID,0.633203,
2010-02-02, 03:37:05,VALID,1009.39,VALID,0,VALID,76.0974,VALID,0,VALID,23.4017,VALID,239,VALID,0.515625,
2010-02-02, 03:38:05,VALID,1009.36,VALID,0,VALID,76.0593,VALID,0,VALID,23.4194,VALID,242,VALID,0.107813,
2010-02-02, 03:39:05,VALID,1009.36,VALID,0,VALID,76.0669,VALID,0,VALID,23.4797,VALID,259,VALID,0.246484,
2010-02-02, 03:40:05,VALID,1009.33,VALID,0,VALID,76.0516,VALID,0,VALID,23.4779,VALID,259,VALID,0.257813,
2010-02-02, 03:41:05,VALID,1009.33,VALID,0,VALID,76.0288,VALID,0,VALID,23.5186,VALID,322,VALID,0.294141,
2010-02-02, 03:42:05,VALID,1009.28,VALID,0,VALID,76.0669,VALID,0,VALID,23.5381,VALID,31,VALID,0.775781,
2010-02-02, 03:43:05,VALID,1009.31,VALID,0,VALID,76.0593,VALID,0,VALID,23.5381,VALID,31,VALID,0.510547,
2010-02-02, 03:44:05,VALID,1009.3,VALID,0,VALID,76.0898,VALID,0,VALID,23.5576,VALID,31,VALID,0.398047,
2010-02-02, 03:45:05,VALID,1009.3,VALID,0,VALID,76.0898,VALID,0.105969,VALID,23.5381,VALID,31,VALID,0.239453,
2010-02-02, 03:46:05,VALID,1009.28,VALID,0,VALID,76.0821,VALID,0,VALID,23.5381,VALID,31,VALID,0.288281,
2010-02-02, 03:47:05,VALID,1009.29,VALID,0,VALID,76.0745,VALID,0,VALID,23.5169,VALID,31,VALID,0.247656,
2010-02-02, 03:48:05,VALID,1009.29,VALID,0,VALID,76.0898,VALID,0,VALID,23.5186,VALID,31,VALID,0,
2010-02-02, 03:49:05,VALID,1009.29,VALID,0,VALID,76.0669,VALID,0,VALID,23.4974,VALID,31,VALID,0,
2010-02-02, 03:50:05,VALID,1009.29,VALID,0,VALID,76.0745,VALID,0,VALID,23.4992,VALID,31,VALID,0,
2010-02-02, 03:51:05,VALID,1009.26,VALID,0,VALID,76.0745,VALID,0,VALID,23.4992,VALID,31,VALID,0,
2010-02-02, 03:52:05,VALID,1009.27,VALID,0,VALID,76.0669,VALID,0,VALID,23.4992,VALID,31,VALID,0,
2010-02-02, 03:53:05,VALID,1009.3,VALID,0,VALID,76.0821,VALID,0,VALID,23.4779,VALID,31,VALID,0,